{"data":{"norad_id":62874,"intl_designator":"2025-022W","name":"STARLINK-32793","alt_names":[],"object_type":"PAYLOAD","status":"ACTIVE","operator":null,"country":"US","launch_date":"2025-02-01","launch_site_code":"AFWTR","launch_vehicle":null,"mission":null,"orbit_class":"UNKNOWN","rcs_meters":null,"size_class":null,"mass_kg":null,"dimensions":null,"purposes":["comms"],"wikipedia_slug":null,"has_3d_model":false,"image_url":null,"decayed_at":null,"tle_current":{"epoch":"2026-05-25T03:25:05.609856Z","epoch_age_seconds":72816,"freshness":"FRESH","line1":"1 62874U 25022W   26145.14242604  .00013672  00000+0  47274-3 0  9994","line2":"2 62874  53.1568 134.6240 0001176  89.5588 270.5547 15.30209106 73608","mean_motion":15.30209106,"eccentricity":0.0001176,"inclination_deg":53.1568,"raan_deg":134.624,"arg_perigee_deg":89.5588,"mean_anomaly_deg":270.5547,"bstar":0.00047274,"rev_number":7360,"period_min":94.104785702406,"perigee_km":474.38192967355,"apogee_km":475.99383168549,"semimajor_km":6853.3248806795,"source":"CELESTRAK","updated_at":"2026-05-25T13:38:19.787640Z"}}}